Regional Weather Roundup
Issued by NWS Cleveland, OH

Home | Current Version | Previous Version | Text Only | Print | Product List | Glossary Off
Versions: 1 2 3 4 5 6 7 8 9 10 11 12 13 14 15 16 17 18 19 20 21 22 23 24 25 26 27 28 29 30 31 32 33 34 35 36 37 38 39 40 41 42 43 44 45 46 47 48 49 50

033
ASUS41 KCLE 231010
RWRCLE
OHIO REGIONAL WEATHER ROUNDUP
NATIONAL WEATHER SERVICE WILMINGTON, OH
600 AM EDT MON OCT 23 2017

NOTE: "FAIR" INDICATES FEW OR NO CLOUDS BELOW 12,000 FEET WITH NO
SIGNIFICANT WEATHER AND/OR OBSTRUCTIONS TO VISIBILITY.

OHZ001>008-015>018-024>027-034-035-043-044-231100-
   NORTHWEST OHIO

CITY           SKY/WX    TMP DP  RH WIND       PRES   REMARKS
DEFIANCE       CLOUDY    65  48  54 S6        29.91F
FINDLAY        MOCLDY    63  49  60 SE12      29.94F
TOLEDO EXPRESS FAIR      62  52  69 SE3       29.92F
TOLEDO EXEC    CLOUDY    63  51  65 SE12      29.94F
LIMA           MOCLDY    64  52  64 S12       29.93F
$$

OHZ009>014-019>023-028>033-038-089-231100-
   NORTHEAST OHIO

CITY           SKY/WX    TMP DP  RH WIND       PRES   REMARKS
CLE-HOPKINS    CLOUDY    64  51  62 S12       30.03S
CLE-LAKEFRONT  FAIR      65  49  56 S16       30.00F
CUY CO. ARPT   NOT AVBL
LORAIN-ELYRIA  NOT AVBL
ASHTABULA      FAIR      61  50  67 SE10      30.06F
AKRON-CANTON   MOCLDY    61  50  67 S12       30.05S
WOOSTER        FAIR      61  51  70 S6        30.03F
MANSFIELD      FAIR      62  50  64 SE12      30.01F
YOUNGSTOWN     MOCLDY    59  50  72 SE8       30.06F
$$

OHZ042-051>053-060>062-070>072-077>081-231100-
  SOUTHWEST OHIO

CITY           SKY/WX    TMP DP  RH WIND       PRES   REMARKS
CINC-COVINGTON CLOUDY    65  55  70 SE9       29.89F
CINC-LUNKEN    FAIR      65  55  70 CALM      29.91F
HAMILTON       MOCLDY    64  56  75 NE5       29.91F
DAYTON         CLOUDY    62  54  74 SE9       29.93F
WRIGHT-PAT AFB CLOUDY    64  52  66 SE7       29.92F
DAYTON GENERAL FAIR      65  52  62 SE9       29.91F
WILMINGTON     FAIR      63  55  75 SE8       29.93F
$$

OHZ036-037-039>041-045>050-054>059-063>069-073>076-082>088-231100-
  CENTRAL AND SOUTHEAST OHIO

CITY           SKY/WX    TMP DP  RH WIND       PRES   REMARKS
COLUMBUS       CLOUDY    64  52  64 SE9       29.97F
OSU AIRPORT    FAIR      63  53  70 SE9       29.97F
BOLTON FIELD   FAIR      61  52  73 SE5       29.97F
RICKENBACK AFB MOCLDY    62  52  68 SE7       29.96F
NEWARK         FAIR      64  50  60 SE6       29.99F
MARION         FAIR      63  50  62 S10       29.98F
LANCASTER      FAIR      61  51  70 SE8       29.99F
ZANESVILLE     MOCLDY    64  52  64 SE7       30.02F
NEW PHILLY     FAIR      59  51  75 CALM      30.05F
$$




USA.gov is the U.S. government's official web portal to all federal, state and local government web resources and services.